Regional Weather Roundup
Issued by NWS Green Bay, WI

Home | Current Version | Previous Version | Graphics & Text | Print | Product List | Glossary Off
Versions: 1 2 3 4 5 6 7 8 9 10 11 12 13 14 15 16 17 18 19 20 21 22 23 24 25 26 27 28 29 30 31 32 33 34 35 36 37 38 39 40 41 42 43 44 45 46 47 48 49 50

000
ASUS43 KGRB 060000
RWRGRB

NORTH-CENTRAL AND NORTHEAST WISCONSIN REGIONAL WEATHER ROUNDUP
NATIONAL WEATHER SERVICE GREEN BAY WI
700 PM CDT SUN JUL 05 2015

WIZ005-009-010>012-018-019-060100-
NORTH CENTRAL WISCONSIN

CITY           SKY/WX    TMP DP  RH WIND       PRES   REMARKS
IRONWOOD       PTSUNNY   79  63  57 S9G22     29.81F
MANITOWISH WTR NOT AVBL
ARBOR VITAE    NOT AVBL
EAGLE RIVER    NOT AVBL
LAND O LAKES   NOT AVBL
RHINELANDER    MOSUNNY   79  61  53 SW10      29.96S
PHILLIPS       NOT AVBL
ANTIGO         NOT AVBL
TOMAHAWK       NOT AVBL
MERRILL        NOT AVBL
$$

WIZ013-073-060100-
NORTHEAST WISCONSIN

CITY           SKY/WX    TMP DP  RH WIND       PRES   REMARKS
IRON MOUNTAIN  SUNNY     79  61  53 S9        29.93F
MARINETTE      SUNNY     75  63  64 S10       29.95F
$$

WIZ017-030-035>037-045-060100-
CENTRAL WISCONSIN

CITY           SKY/WX    TMP DP  RH WIND       PRES   REMARKS
MEDFORD        NOT AVBL
WAUSAU         SUNNY     80  61  52 S13       29.93F
MOSINEE        SUNNY     77  64  65 S12       29.96F
MARSHFIELD     MOSUNNY   80  62  54 S14G20    29.95S
WISC RAPIDS    MOSUNNY   80  61  52 SW8       29.96F
STEVENS POINT  NOT AVBL
WAUPACA        NOT AVBL
SHAWANO        NOT AVBL
CLINTONVILLE   NOT AVBL
$$

WIZ038-039-048-051-060100-
FOX VALLEY

CITY           SKY/WX    TMP DP  RH WIND       PRES   REMARKS
NWS GREEN BAY  SUNNY     81  62  52 S9        29.97S
APPLETON       MOSUNNY   79  61  53 S13       29.98F
OSHKOSH        SUNNY     79  63  57 S8        29.97F
FOND DU LAC    SUNNY     80  63  55 S9        29.98F
$$

WIZ022-050-052-060100-
EAST CENTRAL WISCONSIN

CITY           SKY/WX    TMP DP  RH WIND       PRES   REMARKS
STURGEON BAY   SUNNY     72  59  64 S14       30.00F
MANITOWOC      NOT AVBL
SHEBOYGAN      SUNNY     73  60  63 S9        30.00F
$$

LMZ563-521-522-541>543-060100-
LAKESHORE

STATION/POSITION TIME  TEMP    WIND        PRES    VSBY  WAVE
                       AIR SEA DIR/SP/G                  HT/PER
                 (UTC) (F)     (DEG/KT/KT) (MB)    (MI)  (FT/S)
SHEBOYGAN LKSHOR 2300   64     180/ 14/ 15 1016.6F
KEWAUNEE LKSHORE 2300   64     190/ 12/ 15 1015.4F
NORTHPORT PIER   2300   70     160/  7/ 15 1015.2S
N MID LAKE BUOY  2250   57 47  200/ 10/ 12 1015.5F         1/ 3
S GREEN BAY BUOY 2300   75 71  170/ 14/ 19 1016.0F
CHAMBERS ISLAND  2300   75     150/  5/ 14 1014.6F
MENOMINEE LKSHOR 2300   74     150/ 16/ 19 1015.0F
$$


USA.gov is the U.S. government's official web portal to all federal, state and local government web resources and services.